Location: Commenchon
(49.6411°N, 3.1571°E)
Time: 21:36:17
(UTC+00:00)

Cosmos 1606 Rocket - Pass Details

Date: 15 May 2026
Orbit: 595 x 625 km, 82.5° (Epoch: 10 June)

Event Time Altitude Azimuth Distance (km) Brightness Sun altitude
Exits shadow 21:17:16 21° 166° (SSE) 1,374 4.8 -14.1°
Maximum altitude 21:19:58 55° 95° (E) 729 3.7 -14.3°
Drops below altitude 10° 21:24:11 10° 18° (NNE) 1,955 6.7 -14.7°
Sets 21:26:26 0° 14° (NNE) 2,860 7.6 -14.9°
